EN

Hourly Weather Cardiff

Today, 16 June, Wednesday

Time Temperature Precipitation Wind Pressure Humidity
00:00 +13°C° 0 mm 1 mps 760 mmHg 76%
01:00 +13°C° 0 mm 1 mps 760 mmHg 80%
02:00 +12°C° 0 mm 1 mps 759 mmHg 83%
03:00 +12°C° 0 mm 1 mps 759 mmHg 87%
04:00 +13°C° 0 mm 1 mps 758 mmHg 86%
05:00 +14°C° 0 mm 1 mps 758 mmHg 86%
06:00 +15°C° 0 mm 1 mps 758 mmHg 85%
07:00 +16°C° 0 mm 1 mps 757 mmHg 81%
08:00 +18°C° 0 mm 1 mps 757 mmHg 77%
09:00 +19°C° 0 mm 2 mps 757 mmHg 73%
10:00 +19°C° 0 mm 2 mps 757 mmHg 72%
11:00 +20°C° 0 mm 2 mps 757 mmHg 71%
12:00 +21°C° 0 mm 2 mps 757 mmHg 70%
13:00 +21°C° 0 mm 3 mps 756 mmHg 70%
14:00 +21°C° 0 mm 3 mps 756 mmHg 70%
15:00 +21°C° 0 mm 3 mps 756 mmHg 71%
16:00 +21°C° 0 mm 3 mps 756 mmHg 74%
17:00 +20°C° 0 mm 4 mps 755 mmHg 77%
18:00 +20°C° 0 mm 4 mps 755 mmHg 80%
19:00 +18°C° 0 mm 3 mps 755 mmHg 84%
20:00 +17°C° 0 mm 3 mps 756 mmHg 88%
21:00 +16°C° 0 mm 3 mps 756 mmHg 92%
22:00 +14°C° 0 mm 3 mps 756 mmHg 92%
23:00 +14°C° 0 mm 3 mps 756 mmHg 91%

Tomorrow, 17 June, Thursday

Time Temperature Precipitation Wind Pressure Humidity
00:00 +13°C° 0 mm 3 mps 755 mmHg 90%
01:00 +13°C° 0.2 mm 4 mps 755 mmHg 90%
02:00 +13°C° 0.2 mm 4 mps 755 mmHg 91%
03:00 +13°C° 0.2 mm 4 mps 755 mmHg 91%
04:00 +12°C° 1.4 mm 4 mps 756 mmHg 93%
05:00 +12°C° 1.4 mm 3 mps 756 mmHg 94%
06:00 +11°C° 1.4 mm 3 mps 756 mmHg 96%
07:00 +13°C° 0.1 mm 3 mps 756 mmHg 91%
08:00 +14°C° 0.1 mm 3 mps 757 mmHg 86%
09:00 +16°C° 0.1 mm 3 mps 757 mmHg 81%
10:00 +17°C° 0 mm 3 mps 757 mmHg 77%
11:00 +18°C° 0 mm 3 mps 757 mmHg 72%
12:00 +19°C° 0 mm 3 mps 757 mmHg 68%
13:00 +19°C° 0 mm 3 mps 758 mmHg 68%
14:00 +19°C° 0 mm 4 mps 758 mmHg 69%
15:00 +19°C° 0 mm 5 mps 758 mmHg 69%
16:00 +17°C° 0 mm 5 mps 758 mmHg 70%
17:00 +17°C° 0 mm 5 mps 758 mmHg 72%
18:00 +16°C° 0 mm 5 mps 759 mmHg 74%
19:00 +15°C° 0 mm 4 mps 759 mmHg 76%
20:00 +14°C° 0 mm 4 mps 760 mmHg 78%
21:00 +12°C° 0 mm 3 mps 760 mmHg 80%
22:00 +12°C° 0 mm 3 mps 760 mmHg 78%
23:00 +12°C° 0 mm 3 mps 760 mmHg 76%

Day after tomorrow, 18 June, Friday

Time Temperature Precipitation Wind Pressure Humidity
00:00 +12°C° 0 mm 3 mps 760 mmHg 74%
01:00 +12°C° 0 mm 3 mps 760 mmHg 74%
02:00 +12°C° 0 mm 3 mps 761 mmHg 74%
03:00 +12°C° 0 mm 3 mps 761 mmHg 73%
04:00 +12°C° 0 mm 4 mps 761 mmHg 75%
05:00 +12°C° 0 mm 4 mps 761 mmHg 78%
06:00 +12°C° 0 mm 4 mps 761 mmHg 80%
07:00 +13°C° 0 mm 4 mps 761 mmHg 76%
08:00 +14°C° 0 mm 4 mps 761 mmHg 72%
09:00 +15°C° 0 mm 5 mps 761 mmHg 68%
10:00 +16°C° 0 mm 5 mps 761 mmHg 68%
11:00 +17°C° 0 mm 4 mps 761 mmHg 67%
12:00 +18°C° 0 mm 4 mps 761 mmHg 67%
13:00 +18°C° 0 mm 4 mps 760 mmHg 68%
14:00 +18°C° 0 mm 4 mps 760 mmHg 70%
15:00 +18°C° 0 mm 3 mps 760 mmHg 71%
16:00 +18°C° 0.1 mm 3 mps 760 mmHg 74%
17:00 +17°C° 0.1 mm 3 mps 760 mmHg 76%
18:00 +17°C° 0.1 mm 2 mps 760 mmHg 78%
19:00 +16°C° 0.1 mm 2 mps 760 mmHg 81%
20:00 +15°C° 0.1 mm 1 mps 760 mmHg 85%
21:00 +14°C° 0.1 mm 1 mps 761 mmHg 88%
22:00 +14°C° 0.1 mm 1 mps 761 mmHg 89%
23:00 +13°C° 0.1 mm 1 mps 761 mmHg 89%

19 June, Saturday

Time Temperature Precipitation Wind Pressure Humidity
00:00 +13°C° 0.1 mm 1 mps 761 mmHg 90%
01:00 +13°C° 0.1 mm 1 mps 761 mmHg 91%
02:00 +13°C° 0.1 mm 2 mps 761 mmHg 92%
03:00 +13°C° 0.1 mm 2 mps 761 mmHg 93%
04:00 +13°C° 0 mm 2 mps 761 mmHg 93%
05:00 +14°C° 0 mm 2 mps 761 mmHg 93%
06:00 +14°C° 0 mm 2 mps 761 mmHg 93%
07:00 +15°C° 0 mm 2 mps 761 mmHg 90%
08:00 +16°C° 0 mm 3 mps 760 mmHg 86%
09:00 +16°C° 0 mm 3 mps 760 mmHg 83%
10:00 +17°C° 0.1 mm 3 mps 760 mmHg 81%
11:00 +18°C° 0.1 mm 4 mps 760 mmHg 79%
12:00 +18°C° 0.1 mm 4 mps 760 mmHg 77%
13:00 +18°C° 0.2 mm 4 mps 759 mmHg 80%
14:00 +17°C° 0.2 mm 4 mps 759 mmHg 83%
15:00 +17°C° 0.2 mm 3 mps 758 mmHg 87%
16:00 +17°C° 0 mm 4 mps 758 mmHg 85%
17:00 +16°C° 0 mm 5 mps 757 mmHg 83%
18:00 +16°C° 0 mm 6 mps 757 mmHg 82%
19:00 +16°C° 0.2 mm 6 mps 756 mmHg 84%
20:00 +15°C° 0.2 mm 6 mps 756 mmHg 87%
21:00 +14°C° 0.2 mm 6 mps 756 mmHg 89%
22:00 +14°C° 1.1 mm 5 mps 755 mmHg 92%
23:00 +14°C° 1.1 mm 5 mps 754 mmHg 94%

20 June, Sunday

Time Temperature Precipitation Wind Pressure Humidity
00:00 +13°C° 1.1 mm 5 mps 753 mmHg 97%
01:00 +13°C° 0.7 mm 6 mps 753 mmHg 97%
02:00 +13°C° 0.7 mm 6 mps 752 mmHg 97%
03:00 +11°C° 0.7 mm 6 mps 751 mmHg 97%
04:00 +11°C° 1.2 mm 6 mps 750 mmHg 97%
05:00 +12°C° 1.2 mm 5 mps 750 mmHg 97%
06:00 +12°C° 1.2 mm 5 mps 749 mmHg 97%
07:00 +12°C° 1.1 mm 4 mps 749 mmHg 97%
08:00 +13°C° 1.1 mm 3 mps 749 mmHg 97%
09:00 +14°C° 1.1 mm 2 mps 748 mmHg 97%
10:00 +14°C° 0.2 mm 3 mps 748 mmHg 93%
11:00 +17°C° 0.2 mm 4 mps 749 mmHg 88%
12:00 +17°C° 0.2 mm 5 mps 749 mmHg 84%
13:00 +17°C° 0.4 mm 6 mps 749 mmHg 85%
14:00 +17°C° 0.4 mm 8 mps 748 mmHg 86%
15:00 +16°C° 0.4 mm 9 mps 748 mmHg 88%
16:00 +16°C° 0.1 mm 8 mps 748 mmHg 86%
17:00 +16°C° 0.1 mm 7 mps 748 mmHg 84%
18:00 +16°C° 0.1 mm 7 mps 748 mmHg 83%
19:00 +15°C° 0 mm 6 mps 749 mmHg 85%
20:00 +14°C° 0 mm 6 mps 749 mmHg 88%
21:00 +13°C° 0 mm 5 mps 749 mmHg 91%
22:00 +13°C° 0 mm 6 mps 749 mmHg 90%
23:00 +13°C° 0 mm 6 mps 749 mmHg 90%

21 June, Monday

Time Temperature Precipitation Wind Pressure Humidity
00:00 +13°C° 0 mm 6 mps 748 mmHg 90%
01:00 +13°C° 0 mm 6 mps 748 mmHg 90%
02:00 +12°C° 0 mm 7 mps 748 mmHg 91%
03:00 +12°C° 0 mm 7 mps 748 mmHg 92%
04:00 +12°C° 0.2 mm 8 mps 748 mmHg 92%
05:00 +13°C° 0.2 mm 8 mps 747 mmHg 92%
06:00 +13°C° 0.2 mm 9 mps 747 mmHg 92%
07:00 +13°C° 0.4 mm 9 mps 747 mmHg 92%
08:00 +13°C° 0.4 mm 10 mps 747 mmHg 92%
09:00 +14°C° 0.4 mm 10 mps 747 mmHg 91%
10:00 +14°C° 0.4 mm 10 mps 746 mmHg 91%
11:00 +14°C° 0.4 mm 10 mps 746 mmHg 91%
12:00 +14°C° 0.4 mm 10 mps 746 mmHg 91%
13:00 +16°C° 0.5 mm 10 mps 746 mmHg 90%
14:00 +16°C° 0.5 mm 9 mps 747 mmHg 89%
15:00 +16°C° 0.5 mm 9 mps 747 mmHg 88%
16:00 +16°C° 0.6 mm 8 mps 747 mmHg 89%
17:00 +16°C° 0.6 mm 8 mps 747 mmHg 90%
18:00 +15°C° 0.6 mm 7 mps 748 mmHg 91%
19:00 +15°C° 0.4 mm 7 mps 748 mmHg 92%
20:00 +14°C° 0.4 mm 6 mps 748 mmHg 94%
21:00 +13°C° 0.4 mm 6 mps 749 mmHg 95%
22:00 +13°C° 0.1 mm 6 mps 749 mmHg 95%
23:00 +13°C° 0.1 mm 6 mps 749 mmHg 94%
Show more